[[{"header":{"parameterUnit":"m.s-1","parameterCategory":1,"la1":30.2991,"la2":30.254,"lo1":-89.0895,"lo2":-89.0444,"dy":0.0017,"dx":0.0017,"nx":28,"ny":28,"refTime":"2023-08-19T09:00:00:Z","depth":0,"parameterNumber":2,"parameterNumberName":"U-component_of_WINDS"},"data":[0,0,0,0,0,0,0,0,0,0,0,0,0,0,0,0,0,0,0,0,0,0,0,0,0,0,0,0,0,0,0,0,0,0,0,0,0,0,0,0,0,0,0,0,0,0,0,0,0,0,0,0,0,0,0,0,0,0,-5.5146,-5.5146,0,-5.5135,-5.5135,-5.5135,-5.4953,-5.4948,-5.4944,-5.4939,-5.4928,-5.4932,-5.4936,0,0,0,0,0,0,0,0,0,0,0,0,0,-5.5009,-5.5013,-5.5146,-5.5146,-5.5146,-5.5135,-5.5135,-5.5135,-5.4954,-5.4948,-5.4943,-5.4937,-5.4927,-5.4932,-5.4936,0,0,0,0,0,0,0,0,0,0,0,0,0,-5.5041,-5.5014,-5.5146,-5.5054,-5.5046,-5.5135,-5.5135,-5.5135,-5.4955,-5.4948,-5.4941,-5.4935,-5.4925,-5.4931,-5.4937,-5.5114,0,0,-5.4955,-5.4958,0,0,0,0,0,0,0,0,-5.5039,-5.5046,-5.5068,-5.506,-5.5051,-5.5038,-5.5082,-5.5128,-5.4957,-5.4989,-5.4939,-5.4931,-5.497,-5.4972,-5.4985,-5.5113,-5.5113,-5.4956,-5.496,-5.4962,-5.4964,0,0,0,0,0,0,0,-5.5037,-5.5045,-5.5141,-5.5068,-5.5058,-5.5013,-5.501,-5.509,-5.5019,-5.4986,-5.4973,-5.4974,-5.4965,-5.498,-5.4984,-5.5112,-5.4956,-5.4961,-5.4965,-5.4967,-5.5384,-5.5391,0,0,0,0,0,0,-5.5048,-5.5045,-5.5142,-5.5141,-5.5028,-5.5021,-5.5018,-5.5049,-5.5018,-5.5006,-5.498,-5.4966,-5.4973,-5.4977,-5.4983,-5.5186,-5.4962,-5.4968,-5.4971,-5.5376,-5.5385,-5.5393,0,0,0,0,0,0,-5.5045,-5.5058,-5.5142,-5.5089,-5.5097,-5.5031,-5.5068,-5.5053,-5.5068,-5.5013,-5.4999,-5.5009,-5.4968,-5.4974,-5.5082,-5.5183,-5.4971,-5.4976,-5.5367,-5.5379,-5.5389,-5.5596,0,0,0,0,0,0,-5.5042,-5.5058,-5.5125,-5.5092,-5.51,-5.5243,-5.5074,-5.5058,-5.5079,-5.506,-5.5037,-5.5026,-5.4963,-5.5074,-5.5088,-5.5188,-5.4981,-5.5358,-5.5373,-5.5386,-5.558,-5.5613,-5.5641,0,0,0,0,0,-5.5038,-5.5183,-5.5129,-5.5142,-5.5182,-5.5249,-5.5253,-5.5178,-5.5088,-5.5154,-5.5119,-5.5027,-5.5171,-5.5087,-5.5101,-5.5204,-5.5351,-5.5368,-5.5385,-5.5566,-5.5606,-5.564,0,0,0,0,0,0,-5.5229,-5.5177,-5.5116,-5.5256,-5.5258,-5.5218,-5.5299,-5.5223,-5.525,-5.5231,-5.5136,-5.5133,-5.5255,-5.524,-5.5148,-5.5373,-5.5245,-5.5265,-5.5378,-5.5416,-5.5446,-5.5446,-5.4986,0,0,0,0,0,-5.5288,-5.5347,-5.5298,-5.5426,-5.543,-5.5365,-5.5391,-5.5333,-5.5331,-5.5331,-5.5304,-5.5306,-5.5351,-5.5383,-5.5421,-5.5578,-5.5569,-5.5655,-5.5686,-5.5712,-5.573,-5.581,-5.5848,-5.5448,-5.5448,-5.5448,0,0,-5.5409,-5.5388,-5.5431,-5.5464,-5.5458,-5.5521,-5.5367,-5.544,-5.5485,-5.5342,-5.5442,-5.5423,-5.5418,-5.5551,-5.5608,-5.5542,-5.5839,-5.5733,-5.5754,-5.5758,-5.5831,-5.5869,-5.5903,-5.546,-5.5457,-5.5456,0,0,-5.5661,-5.5652,-5.5756,-5.5755,-5.5749,-5.5705,-5.5731,-5.5702,-5.5684,-5.5783,-5.5677,-5.573,-5.581,-5.5811,-5.5823,-5.6077,-5.5993,-5.6093,-5.6252,-5.6332,-5.6363,-5.6391,-5.648,-5.6514,-5.6111,-5.6112,-5.6112,0,-5.5812,-5.5902,-5.582,-5.59,-5.5917,-5.5792,-5.5897,-5.5899,-5.5907,-5.5922,-5.5848,-5.5947,-5.5935,-5.6066,-5.6128,-5.6142,-5.6168,-5.6094,-5.6366,-5.6392,-5.6417,-5.6501,-5.6535,-5.6124,-5.6123,-5.6121,-5.612,0,-5.6087,-5.6152,-5.6237,-5.6248,-5.6275,-5.6368,-5.6299,-5.6337,-5.6277,-5.6241,-5.6343,-5.6326,-5.6358,-5.6385,-5.6328,-5.6509,-5.6468,-5.6382,-5.6251,-5.6468,-5.6546,-5.6577,-5.6141,-5.6137,-5.6133,-5.613,0,0,-5.6457,-5.6422,-5.6455,-5.6458,-5.6443,-5.6491,-5.6579,-5.6611,-5.6644,-5.6655,-5.6725,-5.6797,-5.6717,-5.673,-5.6671,-5.6742,-5.6944,-5.6647,-5.6645,-5.6701,-5.7141,-5.7204,-5.7243,-5.6889,-5.6895,-5.6899,-5.7141,0,-5.6699,-5.6845,-5.6774,-5.6929,-5.6987,-5.687,-5.6945,-5.6945,-5.6914,-5.6959,-5.6924,-5.6976,-5.6868,-5.6875,-5.694,-5.6906,-5.703,-5.6887,-5.6952,-5.6955,-5.6955,-5.7284,-5.7351,-5.7579,-5.7171,-5.7176,-5.7179,0,-5.7,-5.7023,-5.7184,-5.7159,-5.718,-5.725,-5.7274,-5.7318,-5.7316,-5.7288,-5.7304,-5.7229,-5.7313,-5.7185,-5.7298,-5.7203,-5.7225,-5.7213,-5.722,-5.7221,-5.7079,-5.7292,-5.765,-5.7684,-5.7227,-5.7223,-5.7219,0,-5.7252,-5.7324,-5.7428,-5.7435,-5.7409,-5.746,-5.7452,-5.7442,-5.7466,-5.7488,-5.7502,-5.7534,-5.755,-5.7576,-5.7512,-5.7425,-5.7634,-5.7501,-5.7613,-5.7615,-5.766,-5.7658,-5.8025,-5.7679,-5.7679,-5.7678,-5.7677,0,-5.7528,-5.7631,-5.7541,-5.7606,-5.7717,-5.7635,-5.7748,-5.7726,-5.7719,-5.7777,-5.7679,-5.7735,-5.7648,-5.7696,-5.7647,-5.7748,-5.7757,-5.7736,-5.7721,-5.7744,-5.7746,-5.7756,-5.7738,-5.7687,-5.7685,-5.7683,-5.7682,0,-5.7827,-5.7772,-5.7878,-5.7845,-5.7839,-5.7923,-5.7894,-5.7952,-5.7915,-5.799,-5.8003,-5.7946,-5.7997,-5.7936,-5.7983,-5.795,-5.8086,-5.8049,-5.8087,-5.8076,-5.8191,-5.818,-5.8575,-5.8622,-5.8248,-5.8252,-5.8255,0,-5.8006,-5.8082,-5.8058,-5.809,-5.8087,-5.814,-5.8164,-5.8088,-5.8117,-5.812,-5.8178,-5.8222,-5.8252,-5.834,-5.8302,-5.8337,-5.8299,-5.8435,-5.8303,-5.8324,-5.8299,-5.8295,-5.8301,-5.8461,-5.8466,-5.8469,-5.8472,0,-5.8329,-5.8298,-5.8337,-5.8367,-5.8399,-5.8419,-5.8431,-5.8463,-5.8383,-5.8421,-5.8472,-5.8496,-5.8544,-5.8588,-5.8614,-5.8604,-5.8526,-5.8515,-5.8542,-5.8565,-5.8583,-5.8573,-5.8158,-5.8505,-5.8502,-5.85,-5.8498,-5.8496,-5.8572,-5.8634,-5.8626,-5.8673,-5.8674,-5.8688,-5.8741,-5.8712,-5.8754,-5.8786,-5.8739,-5.8804,-5.8799,-5.8825,-5.8825,-5.8874,-5.8816,-5.8856,-5.8866,-5.8876,-5.8893,-5.8578,-5.8879,-5.8878,-5.8877,-5.8876,-5.8875,0,-5.8888,-5.8878,-5.8922,-5.8942,-5.8979,-5.8903,-5.8913,-5.8949,-5.9007,-5.901,-5.9042,-5.9102,-5.9145,-5.9111,-5.9147,-5.9193,-5.9157,-5.9204,-5.9199,-5.9198,-5.8944,-5.8916,-5.9232,-5.9232,-5.9232,-5.9232,-5.9232,-5.9232,-5.9056,-5.9157,-5.9126,-5.9226,-5.9215,-5.9277,-5.9289,-5.9302,-5.9304,-5.9375,-5.941,-5.9388,-5.9376,-5.9411,-5.9447,-5.9435,-5.9452,-5.9512,-5.9489,-5.9251,-5.9216,-5.9182,-5.9155,-5.9517,-5.9518,-5.9738,-5.974,-5.9742]},{"header":{"parameterUnit":"m.s-1","parameterCategory":1,"la1":30.2991,"la2":30.254,"lo1":-89.0895,"lo2":-89.0444,"dy":0.0017,"dx":0.0017,"nx":28,"ny":28,"refTime":"2023-08-19T09:00:00:Z","depth":0,"parameterNumber":3,"parameterNumberName":"V-component_of_WINDS"},"data":[0,0,0,0,0,0,0,0,0,0,0,0,0,0,0,0,0,0,0,0,0,0,0,0,0,0,0,0,0,0,0,0,0,0,0,0,0,0,0,0,0,0,0,0,0,0,0,0,0,0,0,0,0,0,0,0,0,0,-0.4406,-0.4407,0,-0.4442,-0.4442,-0.4442,-0.4469,-0.4469,-0.447,-0.447,-0.4504,-0.4505,-0.4505,0,0,0,0,0,0,0,0,0,0,0,0,0,-0.4357,-0.4358,-0.4406,-0.4407,-0.4407,-0.4442,-0.4442,-0.4443,-0.4469,-0.4469,-0.447,-0.447,-0.4504,-0.4505,-0.4505,0,0,0,0,0,0,0,0,0,0,0,0,0,-0.4384,-0.4358,-0.4406,-0.4424,-0.4426,-0.4442,-0.4442,-0.4443,-0.4469,-0.4469,-0.447,-0.447,-0.4504,-0.4504,-0.4506,-0.4504,0,0,-0.4509,-0.4509,0,0,0,0,0,0,0,0,-0.4383,-0.4386,-0.4421,-0.4423,-0.4426,-0.4451,-0.4437,-0.4463,-0.4469,-0.4453,-0.447,-0.447,-0.4486,-0.4489,-0.4494,-0.4506,-0.4508,-0.4509,-0.4509,-0.451,-0.451,0,0,0,0,0,0,0,-0.4381,-0.4384,-0.442,-0.4422,-0.4424,-0.443,-0.4434,-0.4442,-0.4467,-0.4454,-0.4456,-0.446,-0.4487,-0.4493,-0.4495,-0.4508,-0.4509,-0.451,-0.451,-0.4511,-0.4517,-0.4517,0,0,0,0,0,0,-0.4376,-0.4383,-0.4419,-0.4421,-0.4405,-0.443,-0.4435,-0.4443,-0.4467,-0.4471,-0.446,-0.4461,-0.4491,-0.4494,-0.4497,-0.4495,-0.451,-0.4511,-0.4511,-0.4518,-0.4517,-0.4517,0,0,0,0,0,0,-0.4375,-0.4379,-0.4418,-0.4403,-0.4408,-0.4431,-0.4439,-0.4443,-0.4449,-0.4471,-0.4475,-0.4462,-0.4492,-0.4495,-0.4502,-0.4497,-0.4511,-0.4512,-0.4518,-0.4518,-0.4517,-0.4494,0,0,0,0,0,0,-0.4374,-0.4379,-0.438,-0.4402,-0.4409,-0.4424,-0.4439,-0.4444,-0.4451,-0.4453,-0.4474,-0.4478,-0.4492,-0.45,-0.4503,-0.4499,-0.4513,-0.4519,-0.4518,-0.4517,-0.4495,-0.4492,-0.449,0,0,0,0,0,-0.4372,-0.4372,-0.438,-0.4384,-0.4411,-0.4423,-0.4427,-0.4444,-0.4451,-0.4451,-0.4465,-0.4477,-0.4497,-0.4501,-0.4504,-0.45,-0.4519,-0.4518,-0.4517,-0.4496,-0.4493,-0.449,0,0,0,0,0,0,-0.4349,-0.4376,-0.4384,-0.4392,-0.4405,-0.4428,-0.4429,-0.444,-0.4451,-0.4453,-0.4473,-0.4477,-0.4481,-0.4491,-0.4495,-0.4498,-0.4509,-0.4509,-0.4492,-0.4489,-0.4487,-0.4484,-0.4514,0,0,0,0,0,-0.4344,-0.4354,-0.4376,-0.4381,-0.4387,-0.4406,-0.4413,-0.4425,-0.4439,-0.4444,-0.4458,-0.4471,-0.4479,-0.4485,-0.4494,-0.4496,-0.45,-0.4495,-0.4492,-0.449,-0.4489,-0.4488,-0.4486,-0.4514,-0.4514,-0.4514,0,0,-0.4336,-0.4352,-0.4356,-0.4376,-0.4388,-0.4395,-0.4411,-0.4419,-0.4424,-0.4445,-0.4452,-0.4462,-0.4477,-0.4481,-0.4483,-0.4489,-0.4482,-0.4489,-0.4487,-0.4487,-0.4487,-0.4484,-0.4482,-0.4513,-0.4513,-0.4513,0,0,-0.4324,-0.4338,-0.4342,-0.4353,-0.4369,-0.4382,-0.4383,-0.4403,-0.4411,-0.4418,-0.4433,-0.4438,-0.4454,-0.4463,-0.447,-0.4457,-0.4468,-0.446,-0.4447,-0.4446,-0.4443,-0.4442,-0.4436,-0.4433,-0.4459,-0.4459,-0.4459,0,-0.4312,-0.4325,-0.4343,-0.4349,-0.4356,-0.4375,-0.4378,-0.4387,-0.4406,-0.441,-0.4416,-0.4434,-0.4445,-0.445,-0.4447,-0.4452,-0.4452,-0.4458,-0.4442,-0.4441,-0.4439,-0.4434,-0.4432,-0.4458,-0.4458,-0.4458,-0.4458,0,-0.4307,-0.4315,-0.4316,-0.4334,-0.4341,-0.4346,-0.4363,-0.4368,-0.4378,-0.4389,-0.4394,-0.4408,-0.4419,-0.4421,-0.4432,-0.4427,-0.443,-0.4439,-0.445,-0.4435,-0.443,-0.4428,-0.4456,-0.4456,-0.4457,-0.4457,0,0,-0.4284,-0.4309,-0.4309,-0.4316,-0.4334,-0.4341,-0.4344,-0.4356,-0.4358,-0.437,-0.4373,-0.4383,-0.4391,-0.4398,-0.441,-0.4409,-0.4395,-0.4418,-0.4418,-0.4412,-0.4388,-0.4381,-0.4378,-0.4403,-0.4402,-0.4402,-0.4386,0,-0.4275,-0.4285,-0.4299,-0.4303,-0.431,-0.4326,-0.4329,-0.4339,-0.4349,-0.4355,-0.4365,-0.4372,-0.4383,-0.4387,-0.4386,-0.4397,-0.4391,-0.4399,-0.4404,-0.4404,-0.4399,-0.4376,-0.4369,-0.4353,-0.4385,-0.4384,-0.4384,0,-0.4266,-0.4276,-0.428,-0.4295,-0.4299,-0.4302,-0.4311,-0.4317,-0.4328,-0.4335,-0.4341,-0.4353,-0.4356,-0.4365,-0.4369,-0.4373,-0.4376,-0.4381,-0.4381,-0.4382,-0.4393,-0.4375,-0.4349,-0.4346,-0.4382,-0.4382,-0.4382,0,-0.4248,-0.4262,-0.4266,-0.4271,-0.4289,-0.429,-0.4297,-0.4309,-0.4313,-0.4321,-0.4324,-0.4332,-0.4336,-0.4341,-0.4353,-0.436,-0.4354,-0.4366,-0.4358,-0.4358,-0.4357,-0.4357,-0.433,-0.4359,-0.4359,-0.4359,-0.4359,0,-0.4236,-0.4238,-0.4257,-0.426,-0.4261,-0.4276,-0.4277,-0.4286,-0.4295,-0.4298,-0.4312,-0.4314,-0.433,-0.4333,-0.4343,-0.4343,-0.4345,-0.4349,-0.4351,-0.4348,-0.4347,-0.435,-0.4351,-0.4359,-0.4359,-0.4359,-0.4359,0,-0.4216,-0.423,-0.4235,-0.425,-0.4254,-0.4254,-0.4267,-0.4268,-0.4278,-0.4281,-0.4282,-0.4297,-0.4301,-0.4313,-0.4321,-0.4327,-0.4324,-0.4329,-0.432,-0.4322,-0.4313,-0.4313,-0.4287,-0.4283,-0.4315,-0.4315,-0.4315,0,-0.4208,-0.421,-0.4224,-0.4227,-0.4234,-0.4239,-0.4243,-0.4257,-0.426,-0.4271,-0.4271,-0.4276,-0.4281,-0.4287,-0.4297,-0.4302,-0.4307,-0.4297,-0.4308,-0.4303,-0.4305,-0.4305,-0.4304,-0.4295,-0.4294,-0.4294,-0.4294,0,-0.4191,-0.4197,-0.4203,-0.421,-0.4215,-0.4221,-0.4228,-0.4229,-0.4245,-0.4247,-0.4252,-0.4255,-0.4262,-0.4266,-0.4272,-0.4278,-0.4288,-0.429,-0.4288,-0.4284,-0.4279,-0.428,-0.4313,-0.4291,-0.4291,-0.4291,-0.4291,-0.4292,-0.4177,-0.4178,-0.4188,-0.4193,-0.4199,-0.4204,-0.4206,-0.4215,-0.4219,-0.4225,-0.4233,-0.4235,-0.4243,-0.4252,-0.4256,-0.4258,-0.4263,-0.4261,-0.4261,-0.426,-0.4257,-0.4278,-0.4259,-0.4259,-0.4259,-0.4259,-0.4259,0,-0.416,-0.4166,-0.4171,-0.4179,-0.4183,-0.4191,-0.4198,-0.42,-0.4202,-0.4209,-0.4212,-0.4216,-0.4219,-0.4228,-0.4232,-0.4231,-0.4235,-0.4231,-0.4231,-0.4232,-0.4253,-0.4253,-0.4227,-0.4227,-0.4227,-0.4227,-0.4227,-0.4227,-0.4152,-0.4153,-0.4159,-0.4162,-0.4169,-0.4172,-0.4174,-0.4178,-0.4183,-0.4186,-0.4189,-0.4195,-0.4201,-0.4205,-0.4207,-0.421,-0.421,-0.4204,-0.4208,-0.4228,-0.4231,-0.4234,-0.4234,-0.4204,-0.4204,-0.4187,-0.4187,-0.4186]}]]